{"data":{"norad_id":65450,"intl_designator":"2025-194S","name":"STARLINK-34970","alt_names":[],"object_type":"PAYLOAD","status":"ACTIVE","operator":null,"country":"US","launch_date":"2025-09-03","launch_site_code":"AFWTR","launch_vehicle":null,"mission":null,"orbit_class":"UNKNOWN","rcs_meters":null,"size_class":null,"mass_kg":null,"dimensions":null,"purposes":["comms"],"wikipedia_slug":null,"has_3d_model":false,"image_url":null,"decayed_at":null,"tle_current":{"epoch":"2026-05-25T02:50:25.731168Z","epoch_age_seconds":75549,"freshness":"FRESH","line1":"1 65450U 25194S   26145.11835337  .00002846  00000+0  20124-3 0  9991","line2":"2 65450  97.4485 359.2800 0002405  74.4702 285.6791 15.05643705 41145","mean_motion":15.05643705,"eccentricity":0.0002405,"inclination_deg":97.4485,"raan_deg":359.28,"arg_perigee_deg":74.4702,"mean_anomaly_deg":285.6791,"bstar":0.00020124,"rev_number":4114,"period_min":95.640156779323,"perigee_km":547.86435936985,"apogee_km":551.19656741974,"semimajor_km":6927.6674633948,"source":"CELESTRAK","updated_at":"2026-05-25T13:38:20.809338Z"}}}